Spokane, WA

8:07 AM PDT on June 23, 2017 (GMT -0700)
Spokane International

Weather History for KGEG - February, 2014

Change the Weather History Date:

Sunday, February 16, 2014

  Actual Average Record
Temperature  
Mean Temperature 37 °F 33 °F  
Max Temperature 41 °F 40 °F 56 °F (1888)
Min Temperature 32 °F 26 °F -7 °F (1956)
Degree Days  
Heating Degree Days 28 32  
Month to date heating degree days 673 526  
Since 1 July heating degree days 4631 4459  
Cooling Degree Days 0 0  
Month to date cooling degree days 0 0  
Year to date cooling degree days 0 0  
Moisture  
Dew Point 28 °F    
Average Humidity 70    
Maximum Humidity 92    
Minimum Humidity 48    
Precipitation  
Precipitation T in 0.05 in 0.60 in (1970)
Month to date precipitation 0.98 0.75  
Year to date precipitation 1.99 2.54  
Snow  
Snow 0.00 in 0.20 in 6.20 in (1959)
Month to date snowfall 8.4 4.2  
Since 1 July snowfall 22.3 37.7  
Snow Depth 0.00 in    
Sea Level Pressure  
Sea Level Pressure 29.81 in    
Wind  
Wind Speed 21 mph (SSW)    
Max Wind Speed 35 mph    
Max Gust Speed 41 mph    
Visibility 10 miles    
Events      
T = Trace of Precipitation, MM = Missing Value Source: NWS Daily Summary

Daily Weather History Graph

Daily Weather History Graph

Search for Another Location

Airport or City:

Trip Planner

Search our weather history database for the weather conditions in past years. The results will help you decide how hot, cold, wet, or windy it might be!

Date:

Astronomy

Feb. 16, 2014 Rise Set
Actual Time 6:53 AM PST 5:15 PM PST
Civil Twilight 6:22 AM PST 5:46 PM PST
Nautical Twilight 5:46 AM PST 6:22 PM PST
Astronomical Twilight 5:10 AM PST 6:58 PM PST
Moon 7:28 PM PST (2/16) 7:15 AM PST (2/16)
Length of Visible Light 11h 24m
Length of Day
10h 21m
Full, 97% of the Moon is Illuminated
Feb 16
Full
Feb 22
Last Quarter
Mar 1
New
Mar 8
First Quarter
Mar 16
Full

Hourly Weather History & Observations

Time (PST) Temp. Windchill Dew Point Humidity Pressure Visibility Wind Dir Wind Speed Gust Speed Precip Events Conditions
12:53 AM 37.0 °F 26.2 °F 35.1 °F 93% 29.58 in 10.0 mi SW 21.9 mph - N/A   Overcast
1:53 AM 36.0 °F 24.4 °F 32.0 °F 86% 29.61 in 10.0 mi SSW 23.0 mph 31.1 mph N/A   Mostly Cloudy
2:02 AM 35.1 °F 23.5 °F 32.0 °F 89% 29.58 in 10.0 mi SSW 21.9 mph 31.1 mph N/A   Mostly Cloudy
2:53 AM 35.1 °F 25.2 °F 30.9 °F 85% 29.63 in 10.0 mi SSW 16.1 mph 25.3 mph N/A   Partly Cloudy
3:53 AM 34.0 °F 23.0 °F 30.9 °F 89% 29.68 in 10.0 mi SSW 18.4 mph - N/A   Partly Cloudy
4:53 AM 33.1 °F 21.5 °F 30.0 °F 89% 29.70 in 10.0 mi SSW 19.6 mph - N/A   Scattered Clouds
5:53 AM 33.1 °F 21.2 °F 28.9 °F 85% 29.73 in 10.0 mi SSW 20.7 mph 26.5 mph N/A   Overcast
6:53 AM 32.0 °F 20.5 °F 28.9 °F 88% 29.75 in 10.0 mi SSW 18.4 mph - N/A   Overcast
7:53 AM 33.1 °F 20.1 °F 28.0 °F 82% 29.77 in 9.0 mi SSW 25.3 mph 29.9 mph 0.00 in   Mostly Cloudy
8:20 AM 33.1 °F 20.3 °F 28.9 °F 85% 29.74 in 10.0 mi SW 24.2 mph 31.1 mph N/A   Mostly Cloudy
8:53 AM 33.1 °F 21.2 °F 28.9 °F 85% 29.81 in 10.0 mi SW 20.7 mph - N/A   Mostly Cloudy
9:14 AM 34.0 °F 22.4 °F 28.9 °F 82% 29.77 in 10.0 mi SW 20.7 mph - N/A   Mostly Cloudy
9:53 AM 36.0 °F 24.2 °F 28.0 °F 73% 29.82 in 10.0 mi SW 24.2 mph 32.2 mph N/A   Mostly Cloudy
10:53 AM 37.0 °F 24.5 °F 27.0 °F 67% 29.84 in 10.0 mi SW 29.9 mph 35.7 mph N/A   Mostly Cloudy
11:53 AM 39.0 °F 27.6 °F 28.0 °F 65% 29.88 in 10.0 mi SW 27.6 mph 34.5 mph N/A   Mostly Cloudy
12:53 PM 39.9 °F 28.8 °F 27.0 °F 60% 29.90 in 10.0 mi WSW 27.6 mph 39.1 mph N/A   Mostly Cloudy
1:53 PM 41.0 °F 30.0 °F 24.1 °F 51% 29.91 in 10.0 mi WSW 28.8 mph 38.0 mph N/A   Scattered Clouds
2:53 PM 39.9 °F 28.6 °F 21.9 °F 49% 29.94 in 10.0 mi WSW 28.8 mph 34.5 mph N/A   Scattered Clouds
3:53 PM 39.9 °F 29.5 °F 23.0 °F 51% 29.96 in 10.0 mi SW 24.2 mph 33.4 mph N/A   Mostly Cloudy
4:53 PM 39.0 °F 32.3 °F 23.0 °F 53% 30.00 in 10.0 mi SSW 10.4 mph - N/A   Overcast
5:53 PM 37.0 °F 28.5 °F 27.0 °F 67% 29.98 in 10.0 mi South 13.8 mph - N/A   Overcast
6:53 PM 37.0 °F 27.4 °F 27.0 °F 67% 29.97 in 10.0 mi South 17.3 mph - N/A   Overcast
7:53 PM 37.0 °F 28.9 °F 27.0 °F 67% 29.94 in 10.0 mi South 12.7 mph - N/A   Overcast
8:53 PM 36.0 °F 26.0 °F 27.0 °F 70% 29.92 in 10.0 mi South 17.3 mph 24.2 mph N/A   Overcast
9:53 PM 39.0 °F 30.3 °F 24.1 °F 55% 29.86 in 10.0 mi South 16.1 mph 23.0 mph N/A   Overcast
10:53 PM 39.0 °F 30.3 °F 25.0 °F 57% 29.82 in 10.0 mi South 16.1 mph - N/A   Overcast
11:53 PM 39.0 °F 30.3 °F 24.1 °F 55% 29.79 in 10.0 mi South 16.1 mph 24.2 mph N/A   Overcast